Skip Page Navigation
NASA JPL Caltech
NASA Logo - Jet Propulsion Laboratory + View the NASA Portal
+ Center for Near-Earth Object Studies
JPL Home Earth Solar System Stars & Galaxies Technology
JPL Solar System Dynamics
BODIES ORBITS EPHEMERIDES TOOLS PHYSICAL DATA DISCOVERY FAQ SITE MAP
IMPORTANT: The SSD Announcement email list is now available. Major changes are coming in the near future, including possible hostname and/or URL changes. To be notified of such changes, subscribe to this email list.

Please visit this page for more details.


JPL Small-Body Database Browser
Search: [ help ]  
469404 (2001 UV137)
Classification: Main-belt Asteroid          SPK-ID: 2469404
Ephemeris | Orbit Diagram | Orbital Elements | Mission Design | Physical Parameters | Discovery Circumstances ]

[ show orbit diagram ]
Orbital Elements at Epoch 2458600.5 (2019-Apr-27.0) TDB
Reference: JPL 8 (heliocentric ecliptic J2000)
 Element Value Uncertainty (1-sigma)   Units 
e .2099039226117863 6.3885e-07  
a 2.447743743052329 1.047e-07 au
q 1.933952729837189 1.6451e-06 au
i 2.181108460909853 9.3711e-06 deg
node 65.98474958930747 0.00032073 deg
peri 275.7578916248895 0.00035436 deg
M 235.7390313120848 0.00015876 deg
tp 2459083.313699737750
(2020-Aug-21.81369974)
0.00064726 TDB
period 1398.773353699873
3.83
8.9744e-05
2.457e-07
d
yr
n .2573683571021494 1.6513e-08 deg/d
Q 2.961534756267469 1.2667e-07 au
  Orbit Determination Parameters
   # obs. used (total)      88  
   data-arc span      5967 days (16.34 yr)  
   first obs. used      2001-09-19  
   last obs. used      2018-01-20  
   planetary ephem.      DE431  
   SB-pert. ephem.      SB431-N16  
   condition code      0  
   norm. resid. RMS      .58268  
   source      ORB  
   producer      Otto Matic  
   solution date      2018-Feb-06 09:56:52  

Additional Information
 Earth MOID = .926353 au 
 Jupiter MOID = 2.43868 au 
 T_jup = 3.466 
[ show covariance matrix ]

Ephemeris | Orbit Diagram | Orbital Elements | Mission Design | Physical Parameters | Discovery Circumstances ]

Physical Parameter Table
Parameter Symbol Value Units Sigma Reference Notes
absolute magnitude H 17.7   n/a MPO434687  

469404 (2001 UV137)          Discovered 2001-Oct-23 by LINEAR at Socorro
Reference: Last Updated: 2016-08-22

Alternate Designations
 2001 UV137 = 2005 UX38 
Ephemeris | Orbit Diagram | Orbital Elements | Mission Design | Physical Parameters | Discovery Circumstances ]
ABOUT SSD CREDITS/AWARDS PRIVACY/COPYRIGHT GLOSSARY LINKS
FirstGov
(server date/time)  
NASA Home Page
Site Manager:   Ryan S. Park
Webmaster  Alan B. Chamberlin